Regional Weather Roundup
Issued by NWS Upton, NY

Current Version | Previous Version | Text Only | Print | Product List | Glossary On
Versions: 1 2 3 4 5 6 7 8 9 10 11 12 13 14 15 16 17 18 19 20 21 22 23 24 25 26 27
000
ASUS41 KOKX 170905
RWROKX

REGIONAL WEATHER ROUNDUP
NATIONAL WEATHER SERVICE NEW YORK NY
500 AM EDT THU APR 17 2014

NOTE: "FAIR" INDICATES FEW OR NO CLOUDS BELOW 12,000 FEET WITH NO
SIGNIFICANT WEATHER AND/OR OBSTRUCTIONS TO VISIBILITY.

NYZ071-072-176-178-NJZ106-104-171000-
NEW YORK CITY METRO AREA


CITY           SKY/WX    TMP DP  RH WIND       PRES   REMARKS
CENTRAL PARK   CLEAR     37  19  48 E9        30.65S WCI  30
LAGUARDIA APRT MOCLDY    37  21  52 NE17      30.63S WCI  27
KENNEDY INTL   PTCLDY    36  22  56 NE10      30.64S WCI  28
NEWARK/LIBERTY PTCLDY    34  21  59 N10       30.63S WCI  26
TETERBORO      CLEAR     37  18  46 NE6       30.63S WCI  32
$$

NYZ177-179-078>081-171000-
LONG ISLAND NEW YORK

CITY           SKY/WX    TMP DP  RH WIND       PRES   REMARKS
FARMINGDALE    CLEAR     34  22  61 NE8       30.63S WCI  27
ISLIP          CLEAR     35  20  54 NE8       30.62S WCI  29
SHIRLEY        CLEAR     33  19  56 NE6       30.65S WCI  28
WESTHAMPTON    CLEAR     36  18  48 NE9       30.65S WCI  29
MONTAUK POINT    N/A     36  22  56 NE13G20   30.66R WCI  27
$$

NYZ052-065-067-171000-
HUDSON VALLEY

CITY           SKY/WX    TMP DP  RH WIND       PRES   REMARKS
WHITE PLAINS   CLEAR     32  17  54 NE5       30.63R WCI  27
NEWBURGH       NOT AVBL
MONTGOMERY     CLEAR     27  18  69 N5        30.65R WCI  22
POUGHKEEPSIE   CLEAR     27  22  81 CALM      30.66R
ALBANY         CLEAR     27  17  66 N5        30.68R WCI  22
$$

NJZ001-105-106-008-010-013-015-019>022-104-171000-
NEW JERSEY

CITY           SKY/WX    TMP DP  RH WIND       PRES   REMARKS
NEWARK/LIBERTY PTCLDY    34  21  59 N10       30.63S WCI  26
TETERBORO      CLEAR     37  18  46 NE6       30.63S WCI  32
CALDWELL       CLEAR     32  18  56 NE3       30.64S
MORRISTOWN     CLEAR     32  21  64 N3        30.64R
SOMERVILLE     CLEAR     34  16  47 VRB3      30.60S
LINDEN         FAIR      38  20  48 NE7       30.64S WCI  33
SUSSEX           N/A     31  19  61 NE5       30.62S WCI  26
ANDOVER          N/A     30  22  72 NE6       30.62R WCI  24
TRENTON        CLEAR     34  18  52 NE9G20    30.59S WCI  27
MILLVILLE      CLEAR     31  25  78 NE3       30.58R
ATLANTIC CITY  CLEAR     29  25  85 N6        30.58R WCI  23
WRIGHTSTOWN    CLEAR     30  22  72 NE6       30.57S WCI  24
TOMS RIVER     CLEAR     28  25  86 CALM      30.59S
BELMAR         CLEAR     37  25  60 NE8       30.59S WCI  31
$$

PAZ047>061-062-071-171000-
EASTERN PENNSYLVANIA

CITY           SKY/WX    TMP DP  RH WIND       PRES   REMARKS
PHILADELPHIA   CLEAR     37  17  44 NE9       30.61R WCI  30
ALLENTOWN      CLEAR     29  18  63 NE7       30.60S WCI  22
SCRANTON       PTCLDY    29  18  63 NE5       30.57S WCI  24
$$

CTZ002-004>006-009-010-012-RIZ004-006-007-MAZ004-011-015-171000-
SOUTHERN NEW ENGLAND
 IN CT

CITY           SKY/WX    TMP DP  RH WIND       PRES   REMARKS
BRADLEY INTL   CLEAR     27  20  75 N5        30.69R WCI  22
HARTFORD       CLEAR     31  19  61 N7        30.69R WCI  24
DANBURY        CLEAR     30  19  63 NE3       30.66R
WTRBRY/OXFORD  CLEAR     28  16  59 NE6       30.66R WCI  22
BRIDGEPORT     CLEAR     34  21  59 NE7       30.67R WCI  28
MERIDEN        CLEAR     31  18  58 N7        30.68R WCI  24
NEW HAVEN      CLEAR     30  19  63 NE6       30.67R WCI  24
CHESTER        FAIR      32  14  47 NE10G17   30.66R WCI  24
GROTON         CLEAR     32  18  56 N10       30.66S WCI  24
WILLIMANTIC    CLEAR     30  16  56 NE7       30.69R WCI  23

 IN RI

CITY           SKY/WX    TMP DP  RH WIND       PRES   REMARKS
PROVIDENCE     CLEAR     31  17  56 N9        30.69R WCI  23
BLOCK ISLAND   CLEAR     36  21  55 NE14G22   30.64R WCI  27
WESTERLY       CLEAR     31  17  56 N7        30.67S WCI  24

 IN MA

CITY           SKY/WX    TMP DP  RH WIND       PRES   REMARKS
BOSTON         PTCLDY    32  19  58 NE15      30.72R WCI  22
WORCESTER      CLEAR     25  14  63 NE9       30.64R WCI  15
WESTFIELD      CLEAR     27  19  72 N7        30.69R WCI  19
PROVINCETOWN   MOCLDY    34  23  64 MISG      30.70R
NANTUCKET      CLEAR     36  23  59 NE18      30.63R WCI  26
$$

ANZ330-335-338-340-345-350-353-355-171000-
COASTAL MARINE OBSERVATIONS


STATION/POSITION TIME  SKY/WX   TEMP    WIND        PRES    VSBY  WAVE
                                AIR SEA DIR/SP/G                  HT/PER
                 (UTC)          (F)     (DEG/KT/KT) (MB)    (MI)  (FT/S)
NY HARB ENTRANCE 0900            40 42   50/ 17/ 21 1036.2
4S FIRE IS       0800               43                N/A           4/10
23SW MTP         0900            38 41   40/ 21/ 25 1036.4          6/10
HUDSON CANYON    0800            41 44   40/ 21/ 23 1034.4          6/10
EXECUTION ROCKS  0900            38 42   50/ 16/ 19   N/A
WESTERN LI SOUND 0900            37      50/ 14/ 17   N/A           1/ 3
CENTRAL LI SOUND 0900            36 41   60/ 17/ 21   N/A           2/ 4
EASTERN LI SOUND NOT AVBL
ROBBINS REEF     0900            39      60/ 18/ 22   N/A
$$


>>>>>>>>>>>>>>>>>>>>>>>>>>>> KEY <<<<<<<<<<<<<<<<<<<<<<<<<<<
>                                                          <
>     SKY/WX - SKY CONDITION/PRESENT WEATHER               <
>     TMP    - TEMPERATURE IN FAHRENHEIT                   <
>     DP     - DEWPOINT IN FAHRENHEIT                      <
>     RH     - RELATIVE HUMIDITY IN PERCENT                <
>     WIND   - DIRECTION AND SPEED IN MPH                  <
>     PRES   - MEAN SEA LEVEL PRESSURE IN INCHES OF HG     <
>     WCI    - WIND CHILL INDEX                            <
>     VSB    - VISIBILITY IN MILES                         <
>     HX     - HEAT INDEX                                  <
>     TC     - TEMPERATURE IN CELSIUS                      <
>     VRB    - VARIABLE WIND DIRECTION                     <
>                                                          <
>>>>>>>>>>>>>>>>>>>>>>>>>>>> KEY <<<<<<<<<<<<<<<<<<<<<<<<<<<





USA.gov is the U.S. government's official web portal to all federal, state and local government web resources and services.